Location: El Frío
(10.0713°N, 67.9111°W)
Time: 09:52:59
(UTC+00:00)

SMAP - Pass Details

Date: 11 December 2025
Orbit: 681 x 683 km, 98.1° (Epoch: 15 January)

Event Time Altitude Azimuth Distance (km) Brightness Sun altitude
Rises 22:22:07 0° 170° (S) 3,035 6.6 -3.2°
Reaches altitude 10° 22:24:21 10° 171° (S) 2,120 5.8 -3.7°
Maximum altitude 22:28:59 80° 258° (WSW) 695 3.3 -4.8°
Drops below altitude 10° 22:33:38 10° 345° (NNW) 2,119 5.5 -5.8°
Sets 22:35:52 0° 347° (NNW) 3,034 6.3 -6.4°
